Dunkirk, NY

12:46 AM EDT on April 23, 2018 (GMT -0400)
Chautauqua County-Dunkirk

Weather History for KDKK - November, 2012

Change the Weather History Date:

Friday, November 9, 2012

  Actual Average Record
Temperature  
Mean Temperature 42 °F -  
Max Temperature 50 °F 51 °F 71 °F (1931)
Min Temperature 34 °F 37 °F 20 °F (1991)
Degree Days  
Heating Degree Days 23    
Moisture  
Dew Point 35 °F    
Average Humidity 76    
Maximum Humidity 89    
Minimum Humidity 52    
Precipitation  
Precipitation 0.00 in - - ()
Sea Level Pressure  
Sea Level Pressure 30.18 in    
Wind  
Wind Speed 7 mph (WSW)    
Max Wind Speed 14 mph    
Max Gust Speed 23 mph    
Visibility 8 miles    
Events      
Averages and records for this station are not official NWS values.
T = Trace of Precipitation, MM = Missing Value Source: NWS Daily Summary

Daily Weather History Graph

Daily Weather History Graph

Search for Another Location

Airport or City:

Astronomy

Nov. 09, 2012 Rise Set
Actual Time 7:01 AM EST 5:00 PM EST
Civil Twilight 6:31 AM EST 5:29 PM EST
Nautical Twilight 5:57 AM EST 6:03 PM EST
Astronomical Twilight 5:24 AM EST 6:36 PM EST
Moon 1:52 AM EST (11/9) 2:17 PM EST (11/9)
Length of Visible Light 10h 58m
Length of Day
9h 58m
Waning Crescent, 23% of the Moon is Illuminated
Nov 9
Waning Crescent
Nov 13
New
Nov 20
First Quarter
Nov 28
Full
Dec 6
Last Quarter

Hourly Weather History & Observations

Time (EST) Temp. Windchill Dew Point Humidity Pressure Visibility Wind Dir Wind Speed Gust Speed Precip Events Conditions
12:05 AM 41.0 °F 35.2 °F 33.8 °F 76% 30.12 in 10.0 mi WNW 9.2 mph - N/A   Scattered Clouds
12:53 AM 41.0 °F 35.8 °F 33.1 °F 73% 30.14 in 10.0 mi NW 8.1 mph - N/A   Scattered Clouds
1:53 AM 41.0 °F 35.8 °F 32.0 °F 70% 30.15 in 10.0 mi NW 8.1 mph - N/A   Mostly Cloudy
2:53 AM 41.0 °F 36.4 °F 32.0 °F 70% 30.16 in 10.0 mi NW 6.9 mph - N/A   Overcast
3:53 AM 41.0 °F 36.4 °F 33.1 °F 73% 30.17 in 10.0 mi WNW 6.9 mph - N/A   Partly Cloudy
4:29 AM 41.0 °F 38.0 °F 33.8 °F 76% 30.15 in 10.0 mi WNW 4.6 mph - N/A   Mostly Cloudy
4:53 AM 41.0 °F 39.0 °F 34.0 °F 76% 30.17 in 10.0 mi West 3.5 mph - N/A   Mostly Cloudy
5:29 AM 42.8 °F 40.1 °F 33.8 °F 70% 30.16 in 10.0 mi West 4.6 mph - N/A   Overcast
5:53 AM 37.0 °F 34.5 °F 33.1 °F 86% 30.18 in 10.0 mi South 3.5 mph - N/A   Overcast
6:53 AM 34.0 °F 29.8 °F 30.9 °F 89% 30.19 in 10.0 mi SSW 4.6 mph - N/A   Mostly Cloudy
7:53 AM 35.1 °F 32.2 °F 32.0 °F 89% 30.20 in 10.0 mi SSW 3.5 mph - N/A   Clear
8:53 AM 42.1 °F 38.4 °F 35.1 °F 76% 30.21 in 10.0 mi SSW 5.8 mph - N/A   Overcast
9:53 AM 43.0 °F 40.3 °F 36.0 °F 76% 30.20 in 10.0 mi SSW 4.6 mph - N/A   Overcast
10:07 AM 44.6 °F 40.7 °F 35.6 °F 71% 30.19 in 10.0 mi SSW 6.9 mph - N/A   Overcast
10:53 AM 44.1 °F 40.8 °F 36.0 °F 73% 30.21 in 10.0 mi SSW 5.8 mph - N/A   Overcast
11:53 AM 46.9 °F - 35.1 °F 63% 30.19 in 10.0 mi WSW 6.9 mph - N/A   Overcast
12:53 PM 50.0 °F - 33.1 °F 52% 30.17 in 10.0 mi West 11.5 mph - N/A   Overcast
1:53 PM 48.0 °F - 39.0 °F 71% 30.17 in 6.0 mi WSW 13.8 mph 23.0 mph N/A   Haze
2:53 PM 46.9 °F - 37.9 °F 71% 30.17 in 7.0 mi WSW 13.8 mph 21.9 mph N/A   Overcast
3:53 PM 46.9 °F - 37.0 °F 68% 30.18 in 6.0 mi WSW 10.4 mph - N/A   Haze
4:53 PM 46.0 °F 41.9 °F 37.0 °F 71% 30.18 in 5.0 mi SW 8.1 mph - N/A   Haze
5:33 PM 44.6 °F 42.2 °F 37.4 °F 76% 30.17 in 7.0 mi WSW 4.6 mph - N/A   Overcast
5:40 PM 46.4 °F 43.5 °F 37.4 °F 71% 30.17 in 7.0 mi WSW 5.8 mph - N/A   Overcast
5:53 PM 45.0 °F 42.6 °F 37.0 °F 74% 30.18 in 7.0 mi SSW 4.6 mph - N/A   Overcast
6:53 PM 41.0 °F 39.0 °F 36.0 °F 82% 30.20 in 6.0 mi SSW 3.5 mph - N/A   Haze
7:53 PM 39.0 °F 36.8 °F 35.1 °F 86% 30.20 in 5.0 mi South 3.5 mph - N/A   Mostly Cloudy
8:53 PM 39.0 °F - 36.0 °F 89% 30.20 in 5.0 mi Calm Calm - N/A   Overcast
9:53 PM 39.9 °F 36.7 °F 36.0 °F 86% 30.21 in 6.0 mi South 4.6 mph - N/A   Overcast
10:53 PM 41.0 °F - 37.0 °F 86% 30.21 in 7.0 mi Calm Calm - N/A   Mostly Cloudy
11:53 PM 39.9 °F - 37.0 °F 89% 30.21 in 6.0 mi Calm Calm - N/A   Overcast